sat.trackr.live / text

‹ back to catalog

STARLINK-31980

NORAD 59962 · 2024-107T

PAYLOAD ACTIVE UNKNOWN

§ Identity

Operator
Country
US
Launch date
2024-06-05
Launch site
AFETR
Launch vehicle
Mass (kg)
RCS (m²)

Purposes: comms

External: N2YO · Heavens-Above · Gunter

§ Orbital elements

Epoch: 2026-09-21T21:35:04.055136Z

Period
93.85 min
Inclination
53.1604°
Eccentricity
0.0001430
Mean motion
15.34384958 rev/d
Perigee alt
461.8 km
Apogee alt
463.7 km
Semi-major
6,840.9 km
B*
-7.1182e-6
RAAN
230.8512°
Arg perigee
89.4898°
Mean anomaly
270.6268°
Rev number
12,988

§ Raw data

STARLINK-319801 59962U 24107T   26264.89935249 -.00000617  00000+0 -71182-5 0  99932 59962  53.1604 230.8512 0001430  89.4898 270.6268 15.34384958129886

JSON: /api/v1/satellites/59962 · /tle

For live sub-satellite position, see the globe view (requires WebGL).

§ Visibility from observer

Set your observer location to see the next 7 days of passes ≥ 10°. The values pass through the URL so the page stays shareable.

No JS? Fill the form by hand. The geolocation button needs JavaScript.